Location: Armstrong
(40.9123°N, 82.0110°W)
Time: 08:29:56
(UTC+00:00)

CZ-4 R/B - Pass Details

Date: 29 October 2020
Orbit: 579 x 590 km, 97.8° (Epoch: 29 November)

Event Time Altitude Azimuth Distance (km) Brightness Sun altitude
Rises 23:39:55 0° 161° (SSE) 2,805 7.8 -14.3°
Reaches altitude 10° 23:42:04 10° 160° (SSE) 1,910 6.9 -14.7°
Maximum altitude 23:46:12 73° 76° (ENE) 621 4.3 -15.5°
Drops below altitude 10° 23:50:22 10° 352° (N) 1,926 7.1 -16.3°
Sets 23:52:32 0° 350° (N) 2,831 8.0 -16.7°
